Flag for Norway

Past Weather in Kvernaland, Norway — Yesterday and Last 2 Weeks

Now
52 °F

Scattered clouds.


Feels Like: 48 °F
Forecast: 49 / 47 °F
Wind: 10 mph from Southeast

Location: Stavanger / Sola
Current Time: Oct 27, 2020 at 10:41:19 am
Latest Report: Oct 27, 2020 at 9:50 am
Visibility: N/A
Pressure29.24 "Hg
Humidity: 72%
Dew Point: 43 °F
Location of KvernalandLocation

Past Weather in Kvernaland — Graph

°F

Kvernaland Temperature Yesterday

Maximum temperature yesterday: 54 °F (at 2:50 pm)
Minimum temperature yesterday: 45 °F (at 10:50 pm)
Average temperature yesterday: 49 °F

High & Low Weather Summary for the Past Weeks

 TemperatureHumidityPressure
High55 °F (Oct 13, 11:50 am)100% (Oct 14, 12:50 am)30.42 "Hg (Oct 14, 12:50 am)
Low34 °F (Oct 14, 7:20 am)47% (Oct 13, 4:20 pm)29.09 "Hg (Oct 25, 4:50 am)
Average48 °F83%29.79 "Hg
* Reported Oct 12 10:20 am — Oct 27 9:20 am, Kvernaland. Weather by CustomWeather, © 2020

Note: Actual official high and low records may vary slightly from our data, if they occured in-between our weather recording intervals... More about our weather records

Kvernaland Weather History for the Previous 24 Hours

Scroll right to see more
 ConditionsComfort  
Time TempWeatherWind HumidityBarometerVisibility
9:20 am
Tue, Oct 27
50 °FBroken clouds.9 mph76%29.24 "HgN/A
8:50 am48 °FScattered clouds.10 mph82%29.24 "HgN/A
8:20 am48 °FScattered clouds.8 mph76%29.24 "HgN/A
7:50 am48 °FScattered clouds.7 mph76%29.24 "HgN/A
7:20 am48 °FPassing clouds.9 mph76%29.24 "HgN/A
6:50 am48 °FPassing clouds.10 mph82%29.24 "HgN/A
6:20 am48 °FLight rain. Passing clouds.9 mph82%29.24 "HgN/A
5:50 am48 °FLight rain. Passing clouds.10 mph76%29.24 "HgN/A
5:20 am48 °FLight rain. Passing clouds.9 mph82%29.27 "HgN/A
4:50 am48 °FPartly cloudy.9 mph76%29.24 "HgN/A
4:20 am48 °FMostly cloudy.7 mph76%29.27 "HgN/A
3:50 am48 °FPassing clouds.7 mph76%29.27 "HgN/A
2:50 am48 °FClear.8 mph76%29.30 "Hg10 mi
2:20 am46 °FClear.8 mph82%29.30 "Hg10 mi
1:50 am46 °FClear.9 mph82%29.30 "Hg10 mi
1:20 am46 °FClear.8 mph82%29.30 "Hg10 mi
12:50 am46 °FClear.8 mph82%29.30 "Hg10 mi
12:20 am46 °FClear.7 mph82%29.33 "Hg10 mi
11:50 pm
Mon, Oct 26
46 °FClear.6 mph82%29.33 "Hg10 mi
11:20 pm45 °FClear.9 mph87%29.33 "Hg10 mi
10:50 pm45 °FClear.10 mph87%29.33 "Hg10 mi
10:20 pm46 °FScattered showers. Passing clouds.5 mph82%29.33 "HgN/A
9:50 pm46 °FScattered showers. Passing clouds.6 mph82%29.33 "HgN/A
9:20 pm46 °FClear.7 mph87%29.33 "Hg10 mi
8:50 pm46 °FClear.7 mph87%29.33 "Hg10 mi
8:20 pm46 °FPassing clouds.7 mph93%29.33 "HgN/A
7:20 pm48 °FSprinkles. Partly cloudy.5 mph87%29.33 "HgN/A
6:50 pm48 °FScattered showers. Partly cloudy.6 mph87%29.33 "HgN/A
6:20 pm48 °FRain showers. Passing clouds.12 mph87%29.36 "Hg6 mi
5:50 pm48 °FScattered showers. Passing clouds.10 mph87%29.33 "HgN/A
5:20 pm50 °FSprinkles. Passing clouds.8 mph82%29.33 "HgN/A
4:50 pm50 °FThundershowers. Scattered clouds.6 mph82%29.33 "HgN/A
4:20 pm52 °FScattered showers. Scattered clouds.8 mph82%29.33 "HgN/A
3:50 pm52 °FScattered showers. Broken clouds.6 mph82%29.33 "HgN/A
3:20 pm54 °FScattered showers. Broken clouds.14 mph77%29.33 "HgN/A
2:50 pm54 °FScattered showers. Scattered clouds.12 mph77%29.33 "HgN/A
2:20 pm52 °FScattered showers. Scattered clouds.12 mph82%29.33 "HgN/A
1:50 pm52 °FScattered showers. Broken clouds.13 mph82%29.36 "HgN/A
1:20 pm48 °FLots of rain. Broken clouds.10 mph82%29.36 "Hg4 mi
12:50 pm52 °FRain showers. Broken clouds.10 mph77%29.36 "HgN/A
12:20 pm48 °FRain showers. Broken clouds.8 mph82%29.36 "HgN/A
11:50 am52 °FScattered showers. Mostly cloudy.10 mph77%29.36 "HgN/A
11:20 am52 °FScattered showers. Scattered clouds.13 mph77%29.33 "HgN/A
10:50 am52 °FScattered showers. Scattered clouds.13 mph77%29.33 "HgN/A
10:20 am50 °FScattered clouds.12 mph82%29.33 "HgN/A
Weather by CustomWeather, © 2020

See weather overview